{"data":{"norad_id":57984,"intl_designator":"2023-151W","name":"STARLINK-30516","alt_names":[],"object_type":"PAYLOAD","status":"ACTIVE","operator":null,"country":"US","launch_date":"2023-09-30","launch_site_code":"AFETR","launch_vehicle":null,"mission":null,"orbit_class":"UNKNOWN","rcs_meters":null,"size_class":null,"mass_kg":null,"dimensions":null,"purposes":["comms"],"wikipedia_slug":null,"has_3d_model":false,"image_url":null,"decayed_at":null,"tle_current":{"epoch":"2026-05-24T20:45:30.769344Z","epoch_age_seconds":80101,"freshness":"FRESH","line1":"1 57984U 23151W   26144.86493946  .00001336  00000+0  58078-4 0  9995","line2":"2 57984  43.0003 283.8712 0001563 258.8878 101.1798 15.27579662147208","mean_motion":15.27579662,"eccentricity":0.0001563,"inclination_deg":43.0003,"raan_deg":283.8712,"arg_perigee_deg":258.8878,"mean_anomaly_deg":101.1798,"bstar":5.8078e-5,"rev_number":14720,"period_min":94.266769571589,"perigee_km":481.97770458843,"apogee_km":484.12251167844,"semimajor_km":6861.1871081334,"source":"CELESTRAK","updated_at":"2026-05-25T13:38:18.488890Z"}}}